Weather History for KORS - May, 2014

Change the Weather History Date:

Tuesday, May 13, 2014

  Actual Average (KBLI) Record (KBLI)
Temperature  
Mean Temperature 58 °F 53 °F  
Max Temperature 64 °F 62 °F 87 °F (1959)
Min Temperature 53 °F 45 °F 35 °F (2000)
Degree Days  
Heating Degree Days 6 12  
Month to date heating degree days 167  
Cooling Degree Days 0 0  
Month to date cooling degree days 0  
Year to date cooling degree days 0  
Growing Degree Days 8 (Base 50)    
Moisture  
Dew Point 50 °F    
Average Humidity 73    
Maximum Humidity 88    
Minimum Humidity 52    
Precipitation  
Precipitation 0.00 in 0.08 in 0.70 in (2008)
Month to date precipitation 1.04  
Year to date precipitation 14.64  
Sea Level Pressure  
Sea Level Pressure 30.35 in    
Wind  
Wind Speed 3 mph (NNW)    
Max Wind Speed 9 mph    
Max Gust Speed -    
Visibility 10 miles    
Events      
T = Trace of Precipitation, MM = Missing Value Source: NWS Daily Summary

Daily Weather History Graph

Daily Weather History Graph

Search for Another Location

Airport or City:

Trip Planner

Search our weather history database for the weather conditions in past years. The results will help you decide how hot, cold, wet, or windy it might be!

Date:

Astronomy

May. 13, 2014 Rise Set
Actual Time 5:32 AM PDT 8:43 PM PDT
Civil Twilight 4:55 AM PDT 9:21 PM PDT
Nautical Twilight 4:06 AM PDT 10:10 PM PDT
Astronomical Twilight 3:04 AM PDT 11:13 PM PDT
Moon 7:45 PM PDT (5/13) 5:01 AM PDT (5/13)
Length of Visible Light 16h 26m
Length of Day
15h 10m
Waxing Gibbous, 99% of the Moon is Illuminated
May 13
Waxing Gibbous
May 14
Full
May 21
Last Quarter
May 28
New
Jun 5
First Quarter

Hourly Weather History & Observations

Time (PDT) Temp. Dew Point Humidity Pressure Visibility Wind Dir Wind Speed Gust Speed Precip Events Conditions
12:15 AM 59.0 °F 48.2 °F 67% 30.33 in 10.0 mi Calm Calm - N/A   Clear
12:35 AM 59.0 °F 48.2 °F 67% 30.33 in 10.0 mi Calm Calm - N/A   Clear
12:55 AM 59.0 °F 48.2 °F 67% 30.33 in 10.0 mi North 3.5 mph - N/A   Clear
1:15 AM 57.2 °F 48.2 °F 72% 30.34 in 10.0 mi NNW 5.8 mph - N/A   Clear
1:35 AM 57.2 °F 50.0 °F 77% 30.34 in 10.0 mi Calm Calm - N/A   Clear
2:15 AM 57.2 °F 50.0 °F 77% 30.34 in 10.0 mi Calm Calm - N/A   Clear
2:35 AM 55.4 °F 50.0 °F 82% 30.34 in 10.0 mi NNW 4.6 mph - N/A   Clear
2:55 AM 55.4 °F 50.0 °F 82% 30.34 in 10.0 mi NNW 6.9 mph - N/A   Clear
3:15 AM 57.2 °F 50.0 °F 77% 30.35 in 10.0 mi Calm Calm - N/A   Clear
3:35 AM 55.4 °F 50.0 °F 82% 30.35 in 10.0 mi Calm Calm - N/A   Clear
3:55 AM 55.4 °F 50.0 °F 82% 30.36 in 10.0 mi NW 3.5 mph - N/A   Clear
4:15 AM 55.4 °F 50.0 °F 82% 30.36 in 10.0 mi Calm Calm - N/A   Clear
4:35 AM 55.4 °F 50.0 °F 82% 30.37 in 10.0 mi Calm Calm - N/A   Clear
4:55 AM 55.4 °F 50.0 °F 82% 30.37 in 10.0 mi Calm Calm - N/A   Clear
5:15 AM 55.4 °F 50.0 °F 82% 30.35 in 10.0 mi North 4.6 mph - N/A   Clear
6:15 AM 55.4 °F 50.0 °F 82% 30.36 in 9.0 mi NNW 6.9 mph - N/A   Scattered Clouds
6:35 AM 55.4 °F 50.0 °F 82% 30.36 in 9.0 mi NNW 3.5 mph - N/A   Clear
6:55 AM 55.4 °F 51.8 °F 88% 30.36 in 9.0 mi Calm Calm - N/A   Partly Cloudy
7:15 AM 53.6 °F 50.0 °F 88% 30.37 in 8.0 mi NNW 3.5 mph - N/A   Partly Cloudy
7:55 AM 55.4 °F 51.8 °F 88% 30.37 in 9.0 mi Calm Calm - N/A   Clear
9:15 AM 57.2 °F 51.8 °F 82% 30.39 in 10.0 mi NNW 8.1 mph - N/A   Clear
9:35 AM 55.4 °F 51.8 °F 88% 30.39 in 10.0 mi North 6.9 mph - N/A   Clear
9:55 AM 57.2 °F 51.8 °F 82% 30.40 in 8.0 mi NNW 9.2 mph - N/A   Clear
10:35 AM 57.2 °F 53.6 °F 88% 30.40 in 9.0 mi NNW 4.6 mph - N/A   Clear
10:55 AM 57.2 °F 51.8 °F 82% 30.40 in 9.0 mi NNW 8.1 mph - N/A   Clear
11:15 AM 57.2 °F 51.8 °F 82% 30.40 in 10.0 mi NNW 8.1 mph - N/A   Clear
11:35 AM 59.0 °F 51.8 °F 77% 30.40 in 10.0 mi NNW 8.1 mph - N/A   Clear
11:55 AM 59.0 °F 51.8 °F 77% 30.40 in 9.0 mi NNW 9.2 mph - N/A   Clear
12:15 PM 59.0 °F 53.6 °F 82% 30.39 in 9.0 mi North 6.9 mph - N/A   Clear
12:35 PM 59.0 °F 53.6 °F 82% 30.39 in 9.0 mi NNW 9.2 mph - N/A   Clear
12:55 PM 59.0 °F 53.6 °F 82% 30.39 in 10.0 mi North 5.8 mph - N/A   Clear
1:15 PM 60.8 °F 50.0 °F 68% 30.39 in 10.0 mi NNW 8.1 mph - N/A   Clear
1:35 PM 60.8 °F 50.0 °F 68% 30.38 in 10.0 mi NNW 8.1 mph - N/A   Clear
1:55 PM 62.6 °F 50.0 °F 63% 30.38 in 10.0 mi NNW 9.2 mph - N/A   Clear
2:15 PM 62.6 °F 50.0 °F 63% 30.38 in 10.0 mi NNW 5.8 mph - N/A   Clear
2:35 PM 62.6 °F 50.0 °F 63% 30.37 in 10.0 mi North 4.6 mph - N/A   Clear
2:55 PM 62.6 °F 48.2 °F 59% 30.36 in 10.0 mi NNW 5.8 mph - N/A   Clear
3:15 PM 62.6 °F 48.2 °F 59% 30.36 in 10.0 mi North 4.6 mph - N/A   Clear
3:35 PM 64.4 °F 48.2 °F 56% 30.35 in 10.0 mi North 5.8 mph - N/A   Clear
3:55 PM 64.4 °F 48.2 °F 56% 30.34 in 10.0 mi North 4.6 mph - N/A   Clear
4:15 PM 64.4 °F 46.4 °F 52% 30.33 in 10.0 mi NNW 4.6 mph - N/A   Clear
4:35 PM 64.4 °F 48.2 °F 56% 30.33 in 10.0 mi North 4.6 mph - N/A   Clear
4:55 PM 64.4 °F 50.0 °F 59% 30.33 in 8.0 mi Calm Calm - N/A   Clear
5:15 PM 64.4 °F 50.0 °F 59% 30.33 in 9.0 mi Calm Calm - N/A   Clear
5:35 PM 64.4 °F 48.2 °F 56% 30.32 in 10.0 mi NNW 4.6 mph - N/A   Clear
5:55 PM 64.4 °F 50.0 °F 59% 30.32 in 10.0 mi NNW 4.6 mph - N/A   Clear
6:15 PM 64.4 °F 50.0 °F 59% 30.32 in 9.0 mi NNW 4.6 mph - N/A   Clear
6:35 PM 62.6 °F 53.6 °F 72% 30.32 in 10.0 mi NNW 5.8 mph - N/A   Clear
6:55 PM 62.6 °F 51.8 °F 68% 30.32 in 10.0 mi NNW 5.8 mph - N/A   Clear
7:15 PM 62.6 °F 48.2 °F 59% 30.32 in 10.0 mi North 5.8 mph - N/A   Clear
7:35 PM 62.6 °F 48.2 °F 59% 30.32 in 9.0 mi North 4.6 mph - N/A   Clear
7:55 PM 62.6 °F 48.2 °F 59% 30.31 in 10.0 mi Calm Calm - N/A   Clear
8:15 PM 59.0 °F 50.0 °F 72% 30.31 in 10.0 mi Calm Calm - N/A   Clear
8:35 PM 59.0 °F 48.2 °F 67% 30.31 in 10.0 mi Calm Calm - N/A   Clear
8:55 PM 57.2 °F 48.2 °F 72% 30.30 in 10.0 mi Calm Calm - N/A   Clear
9:15 PM 57.2 °F 48.2 °F 72% 30.31 in 10.0 mi Calm Calm - N/A   Clear
9:35 PM 57.2 °F 48.2 °F 72% 30.31 in 10.0 mi Calm Calm - N/A   Clear
9:55 PM 55.4 °F 46.4 °F 72% 30.31 in 10.0 mi Calm Calm - N/A   Clear
10:15 PM 53.6 °F 46.4 °F 77% 30.32 in 10.0 mi Calm Calm - N/A   Clear
10:35 PM 53.6 °F 46.4 °F 77% 30.32 in 10.0 mi Calm Calm - N/A   Clear
11:15 PM 53.6 °F 46.4 °F 77% 30.33 in 10.0 mi Calm Calm - N/A   Clear
11:35 PM 55.4 °F 46.4 °F 72% 30.32 in 10.0 mi Calm Calm - N/A   Clear
11:55 PM 53.6 °F 48.2 °F 82% 30.32 in 10.0 mi Calm Calm - N/A   Clear